TimeCET,TemperatureF,Dew PointF,Humidity,Sea Level PressureIn,VisibilityMPH,Wind Direction,Wind SpeedMPH,Gust SpeedMPH,PrecipitationIn,Events,Conditions,WindDirDegrees,DateUTC
12:25 AM,33.8,33.8,100,29.74,6.2,WNW,3.5,-,N/A,,Partly Cloudy,300,2012-11-29 23:25:00
12:55 AM,32.0,30.2,93,29.74,6.2,NW,5.8,-,N/A,,Partly Cloudy,310,2012-11-29 23:55:00
1:00 AM,32,31,95,29.77,7,NW,6.7,,,,Partly Cloudy,320,2012-11-30 00:00:00
1:25 AM,33.8,32.0,93,29.77,6.2,NNE,1.2,-,N/A,,Partly Cloudy,20,2012-11-30 00:25:00
1:55 AM,32.0,32.0,100,29.74,-9999.0,Variable,1.2,-,N/A,,Clear,0,2012-11-30 00:55:00
2:25 AM,32.0,30.2,93,29.74,6.2,WSW,2.3,-,N/A,,Partly Cloudy,240,2012-11-30 01:25:00
2:55 AM,32.0,30.2,93,29.77,6.2,WNW,3.5,-,N/A,,Scattered Clouds,300,2012-11-30 01:55:00
3:25 AM,32.0,32.0,100,29.74,-9999.0,WNW,2.3,-,N/A,,Clear,300,2012-11-30 02:25:00
3:55 AM,30.2,30.2,100,29.74,-9999.0,West,1.2,-,N/A,,Clear,280,2012-11-30 02:55:00
4:00 AM,30,30,98,29.77,7,ENE,2.2,,,,,60,2012-11-30 03:00:00
4:25 AM,30.2,30.2,100,29.74,-9999.0,WNW,1.2,-,N/A,,Clear,300,2012-11-30 03:25:00
4:55 AM,30.2,30.2,100,29.74,6.2,WNW,1.2,-,N/A,Fog,Shallow Fog,300,2012-11-30 03:55:00
5:25 AM,30.2,30.2,100,29.74,6.2,SW,2.3,-,N/A,Fog,Shallow Fog,230,2012-11-30 04:25:00
5:55 AM,30.2,30.2,100,29.74,6.2,Calm,Calm,-,N/A,Fog,Shallow Fog,0,2012-11-30 04:55:00
6:25 AM,30.2,28.4,93,29.77,6.2,Calm,Calm,-,N/A,Fog,Shallow Fog,0,2012-11-30 05:25:00
6:55 AM,26.6,26.6,100,29.77,6.2,Variable,2.3,-,N/A,Fog,Shallow Fog,0,2012-11-30 05:55:00
7:00 AM,28,28,97,29.78,0,SW,2.2,,,Fog,Fog,230,2012-11-30 06:00:00
7:25 AM,30.2,30.2,100,29.77,6.2,NW,1.2,-,N/A,Fog,Shallow Fog,310,2012-11-30 06:25:00
7:55 AM,30.2,30.2,100,29.77,6.2,East,1.2,-,N/A,Fog,Shallow Fog,80,2012-11-30 06:55:00
8:25 AM,28.4,28.4,100,29.77,6.2,SSW,2.3,-,N/A,Fog,Shallow Fog,200,2012-11-30 07:25:00
8:55 AM,30.2,28.4,93,29.77,6.2,South,3.5,-,N/A,,Partly Cloudy,170,2012-11-30 07:55:00
9:25 AM,32.0,32.0,100,29.80,-9999.0,Variable,2.3,-,N/A,,Clear,0,2012-11-30 08:25:00
9:55 AM,32.0,32.0,100,29.80,6.2,SSW,4.6,-,N/A,,Mostly Cloudy,200,2012-11-30 08:55:00
10:00 AM,33,32,94,29.81,14,SSW,4.5,,,,Overcast,200,2012-11-30 09:00:00
10:25 AM,33.8,33.8,100,29.80,6.2,South,4.6,-,N/A,,Mostly Cloudy,180,2012-11-30 09:25:00
10:55 AM,37.4,33.8,87,29.80,6.2,South,5.8,-,N/A,,Mostly Cloudy,180,2012-11-30 09:55:00
11:25 AM,39.2,37.4,93,29.80,6.2,South,5.8,-,N/A,,Mostly Cloudy,190,2012-11-30 10:25:00
11:55 AM,42.8,37.4,81,29.80,6.2,SSW,6.9,-,N/A,,Scattered Clouds,200,2012-11-30 10:55:00
12:25 PM,42.8,35.6,76,29.80,6.2,SSW,9.2,-,N/A,,Partly Cloudy,210,2012-11-30 11:25:00
12:55 PM,44.6,35.6,71,29.80,6.2,SSW,9.2,-,N/A,,Partly Cloudy,210,2012-11-30 11:55:00
1:00 PM,44,36,63,29.81,19,SSW,8.9,,,,Partly Cloudy,210,2012-11-30 12:00:00
1:25 PM,44.6,35.6,71,29.80,6.2,SW,9.2,-,N/A,,Partly Cloudy,220,2012-11-30 12:25:00
1:55 PM,44.6,35.6,71,29.80,6.2,SW,10.4,-,N/A,,Scattered Clouds,220,2012-11-30 12:55:00
2:25 PM,42.8,35.6,76,29.80,6.2,SSW,10.4,-,N/A,,Partly Cloudy,210,2012-11-30 13:25:00
2:55 PM,42.8,37.4,81,29.80,6.2,SW,9.2,-,N/A,Rain,Light Rain Showers,220,2012-11-30 13:55:00
3:25 PM,42.8,35.6,76,29.80,6.2,SW,9.2,-,N/A,,Scattered Clouds,220,2012-11-30 14:25:00
3:55 PM,42.8,35.6,76,29.80,6.2,WSW,13.8,-,N/A,Rain,Light Rain Showers,240,2012-11-30 14:55:00
4:00 PM,42,36,71,29.81,17,SW,11.2,,,Rain,Light Drizzle,230,2012-11-30 15:00:00
4:25 PM,41.0,35.6,81,29.80,6.2,SW,10.4,-,N/A,Rain,Light Rain Showers,220,2012-11-30 15:25:00
4:55 PM,39.2,37.4,93,29.80,6.2,SW,8.1,-,N/A,Rain,Light Rain Showers,220,2012-11-30 15:55:00
5:25 PM,39.2,37.4,93,29.80,6.2,SSW,9.2,-,N/A,Rain,Light Rain Showers,200,2012-11-30 16:25:00
5:55 PM,39.2,35.6,87,29.80,6.2,South,8.1,-,N/A,,Scattered Clouds,180,2012-11-30 16:55:00
6:25 PM,39.2,37.4,93,29.80,6.2,South,9.2,-,N/A,,Scattered Clouds,190,2012-11-30 17:25:00
6:55 PM,37.4,35.6,93,29.80,6.2,SSW,8.1,-,N/A,,Partly Cloudy,200,2012-11-30 17:55:00
7:00 PM,37,36,92,29.83,28,SSW,8.9,,,Rain,Rain,200,2012-11-30 18:00:00
7:25 PM,35.6,33.8,93,29.80,6.2,SSW,6.9,-,N/A,Rain,Light Rain Showers,200,2012-11-30 18:25:00
7:55 PM,37.4,37.4,100,29.83,6.2,South,5.8,-,N/A,Rain,Light Rain Showers,190,2012-11-30 18:55:00
8:25 PM,37.4,35.6,93,29.83,6.2,South,4.6,-,N/A,Rain,Light Rain Showers,190,2012-11-30 19:25:00
8:55 PM,39.2,37.4,93,29.83,4.3,WNW,6.9,-,N/A,Rain,Light Rain Showers,290,2012-11-30 19:55:00
9:25 PM,39.2,35.6,87,29.83,6.2,SSE,3.5,-,N/A,Rain,Light Rain Showers,160,2012-11-30 20:25:00
9:55 PM,37.4,35.6,93,29.83,6.2,SSE,2.3,-,N/A,,Partly Cloudy,160,2012-11-30 20:55:00
10:00 PM,36,35,97,29.85,28,South,2.2,,,Rain,Rain,170,2012-11-30 21:00:00
10:25 PM,35.6,35.6,100,29.83,6.2,SW,4.6,-,N/A,,Partly Cloudy,220,2012-11-30 21:25:00
10:55 PM,35.6,33.8,93,29.83,6.2,SSW,5.8,-,N/A,,Partly Cloudy,200,2012-11-30 21:55:00
11:25 PM,37.4,35.6,93,29.86,6.2,SW,5.8,-,N/A,,Partly Cloudy,230,2012-11-30 22:25:00
11:55 PM,37.4,37.4,100,29.86,6.2,West,6.9,-,N/A,Rain,Light Rain Showers,270,2012-11-30 22:55:00